Location: Dürabuch
(48.2640°N, 11.2185°E)
Time: 08:24:35
(UTC+00:00)

Okean 2 - Pass Details

Date: 23 May 2024
Orbit: 540 x 553 km, 82.5° (Epoch: 15 June)

Event Time Altitude Azimuth Distance (km) Brightness Sun altitude
Exits shadow 00:50:27 41° 207° (SSW) 790 3.6 -17.6°
Maximum altitude 00:51:43 72° 280° (W) 573 3.3 -17.6°
Drops below altitude 10° 00:55:42 10° 6° (N) 1,815 7.1 -17.3°
Sets 00:57:52 0° 8° (N) 2,713 8.3 -17.1°
